Time,TemperatureF,DewpointF,PressureIn,WindDirection,WindDirectionDegrees,WindSpeedMPH,WindSpeedGustMPH,Humidity,HourlyPrecipIn,Conditions,Clouds,dailyrainin,SoftwareType,DateUTC
2013-04-09 00:03:00,68.0,59.0,30.12,East,90,3.0,7.0,71,-99.99,,,-99.99,,2013-04-09 04:03:00,
2013-04-09 00:13:00,68.0,59.0,30.12,East,90,3.0,7.0,71,-99.99,,,-99.99,,2013-04-09 04:13:00,
2013-04-09 00:23:00,67.0,58.0,30.12,East,87,3.0,6.0,74,-99.99,,,-99.99,,2013-04-09 04:23:00,
2013-04-09 00:32:00,67.0,58.0,30.12,East,87,3.0,6.0,74,-99.99,,,-99.99,,2013-04-09 04:32:00,
2013-04-09 00:43:00,66.0,58.0,30.13,East,85,3.0,5.0,76,-99.99,,,-99.99,,2013-04-09 04:43:00,
2013-04-09 00:53:00,66.0,58.0,30.13,East,85,3.0,5.0,76,-99.99,,,-99.99,,2013-04-09 04:53:00,
2013-04-09 01:02:00,65.0,58.0,30.13,East,82,2.0,4.0,78,-99.99,,,-99.99,,2013-04-09 05:02:00,
2013-04-09 01:12:00,65.0,58.0,30.13,East,82,2.0,4.0,78,-99.99,,,-99.99,,2013-04-09 05:12:00,
2013-04-09 01:22:00,63.0,58.0,30.12,East,88,3.0,5.0,84,-99.99,,,-99.99,,2013-04-09 05:22:00,
2013-04-09 01:32:00,63.0,58.0,30.12,East,88,3.0,5.0,84,-99.99,,,-99.99,,2013-04-09 05:32:00,
2013-04-09 01:43:00,63.0,58.0,30.12,East,96,3.0,4.0,83,-99.99,,,-99.99,,2013-04-09 05:43:00,
2013-04-09 01:52:00,63.0,58.0,30.12,East,96,3.0,4.0,83,-99.99,,,-99.99,,2013-04-09 05:52:00,
2013-04-09 02:02:00,62.0,58.0,30.11,East,87,3.0,5.0,86,-99.99,,,-99.99,,2013-04-09 06:02:00,
2013-04-09 02:12:00,62.0,58.0,30.11,East,87,3.0,5.0,86,-99.99,,,-99.99,,2013-04-09 06:12:00,
2013-04-09 02:22:00,63.0,58.0,30.11,ENE,77,2.0,4.0,85,-99.99,,,-99.99,,2013-04-09 06:22:00,
2013-04-09 02:32:00,63.0,58.0,30.11,ENE,77,2.0,4.0,85,-99.99,,,-99.99,,2013-04-09 06:32:00,
2013-04-09 02:42:00,61.0,58.0,30.10,ENE,69,3.0,5.0,88,-99.99,,,-99.99,,2013-04-09 06:42:00,
2013-04-09 02:52:00,61.0,58.0,30.10,ENE,69,3.0,5.0,88,-99.99,,,-99.99,,2013-04-09 06:52:00,
2013-04-09 03:02:00,60.0,57.0,30.09,ENE,74,2.0,4.0,89,-99.99,,,-99.99,,2013-04-09 07:02:00,
2013-04-09 03:13:00,60.0,57.0,30.09,ENE,74,2.0,4.0,89,-99.99,,,-99.99,,2013-04-09 07:13:00,
2013-04-09 03:22:00,58.0,56.0,30.08,NE,55,1.0,3.0,93,-99.99,,,-99.99,,2013-04-09 07:22:00,
2013-04-09 03:32:00,58.0,56.0,30.08,NE,55,1.0,3.0,93,-99.99,,,-99.99,,2013-04-09 07:32:00,
2013-04-09 03:42:00,57.0,56.0,30.08,SSW,193,1.0,1.0,93,-99.99,,,-99.99,,2013-04-09 07:42:00,
2013-04-09 03:53:00,57.0,56.0,30.08,SSW,193,1.0,1.0,93,-99.99,,,-99.99,,2013-04-09 07:53:00,
2013-04-09 04:03:00,57.0,55.0,30.08,WSW,253,1.0,1.0,94,-99.99,,,-99.99,,2013-04-09 08:03:00,
2013-04-09 04:13:00,57.0,55.0,30.08,WSW,253,1.0,1.0,94,-99.99,,,-99.99,,2013-04-09 08:13:00,
2013-04-09 04:22:00,56.0,54.0,30.07,ENE,59,1.0,2.0,95,-99.99,,,-99.99,,2013-04-09 08:22:00,
2013-04-09 04:32:00,56.0,54.0,30.07,ENE,59,1.0,2.0,95,-99.99,,,-99.99,,2013-04-09 08:32:00,
2013-04-09 04:42:00,54.0,53.0,30.07,West,274,1.0,2.0,95,-99.99,,,-99.99,,2013-04-09 08:42:00,
2013-04-09 04:52:00,54.0,53.0,30.07,West,274,1.0,2.0,95,-99.99,,,-99.99,,2013-04-09 08:52:00,
2013-04-09 05:02:00,54.0,53.0,30.07,SE,125,1.0,3.0,96,-99.99,,,-99.99,,2013-04-09 09:02:00,
2013-04-09 05:12:00,54.0,53.0,30.07,SE,125,1.0,3.0,96,-99.99,,,-99.99,,2013-04-09 09:12:00,
2013-04-09 05:22:00,53.0,52.0,30.07,South,184,1.0,2.0,96,-99.99,,,-99.99,,2013-04-09 09:22:00,
2013-04-09 05:33:00,53.0,52.0,30.07,South,184,1.0,2.0,96,-99.99,,,-99.99,,2013-04-09 09:33:00,
2013-04-09 05:44:00,53.0,52.0,30.07,NE,43,1.0,3.0,96,-99.99,,,-99.99,,2013-04-09 09:44:00,
2013-04-09 05:53:00,53.0,52.0,30.07,NE,43,1.0,3.0,96,-99.99,,,-99.99,,2013-04-09 09:53:00,
2013-04-09 06:04:00,52.0,51.0,30.07,East,83,1.0,2.0,96,-99.99,,,-99.99,,2013-04-09 10:04:00,
2013-04-09 06:13:00,52.0,51.0,30.07,East,83,1.0,2.0,96,-99.99,,,-99.99,,2013-04-09 10:13:00,
2013-04-09 06:24:00,52.0,51.0,30.08,ESE,123,1.0,1.0,96,-99.99,,,-99.99,,2013-04-09 10:24:00,
2013-04-09 06:33:00,52.0,51.0,30.08,ESE,123,1.0,1.0,96,-99.99,,,-99.99,,2013-04-09 10:33:00,
2013-04-09 06:43:00,52.0,51.0,30.08,ENE,62,1.0,2.0,96,-99.99,,,-99.99,,2013-04-09 10:43:00,
2013-04-09 06:54:00,52.0,51.0,30.08,ENE,62,1.0,2.0,96,-99.99,,,-99.99,,2013-04-09 10:54:00,
2013-04-09 07:02:00,51.0,50.0,30.09,NE,38,1.0,2.0,96,-99.99,,,-99.99,,2013-04-09 11:02:00,
2013-04-09 07:12:00,51.0,50.0,30.09,NE,38,1.0,2.0,96,-99.99,,,-99.99,,2013-04-09 11:12:00,
2013-04-09 07:22:00,51.0,50.0,30.09,NE,42,1.0,2.0,96,-99.99,,,-99.99,,2013-04-09 11:22:00,
2013-04-09 07:32:00,51.0,50.0,30.09,NE,42,1.0,2.0,96,-99.99,,,-99.99,,2013-04-09 11:32:00,
2013-04-09 07:43:00,51.0,50.0,30.09,ENE,62,2.0,4.0,97,-99.99,,,-99.99,,2013-04-09 11:43:00,
2013-04-09 07:52:00,51.0,50.0,30.09,ENE,62,2.0,4.0,97,-99.99,,,-99.99,,2013-04-09 11:52:00,
2013-04-09 08:02:00,51.0,50.0,30.10,NE,55,2.0,4.0,97,-99.99,,,-99.99,,2013-04-09 12:02:00,
2013-04-09 08:12:00,51.0,50.0,30.10,NE,55,2.0,4.0,97,-99.99,,,-99.99,,2013-04-09 12:12:00,
2013-04-09 08:22:00,54.0,53.0,30.11,NE,39,2.0,4.0,97,-99.99,,,-99.99,,2013-04-09 12:22:00,
2013-04-09 08:32:00,54.0,53.0,30.11,NE,39,2.0,4.0,97,-99.99,,,-99.99,,2013-04-09 12:32:00,
2013-04-09 08:43:00,60.0,59.0,30.11,NE,43,3.0,4.0,97,-99.99,,,-99.99,,2013-04-09 12:43:00,
2013-04-09 08:53:00,60.0,59.0,30.11,NE,43,3.0,4.0,97,-99.99,,,-99.99,,2013-04-09 12:53:00,
2013-04-09 09:03:00,63.0,62.0,30.11,NE,53,3.0,6.0,96,-99.99,,,-99.99,,2013-04-09 13:03:00,
2013-04-09 09:13:00,63.0,62.0,30.11,NE,53,3.0,6.0,96,-99.99,,,-99.99,,2013-04-09 13:13:00,
2013-04-09 09:23:00,68.0,63.0,30.12,East,80,3.0,7.0,85,-99.99,,,-99.99,,2013-04-09 13:23:00,
2013-04-09 09:33:00,68.0,63.0,30.12,East,80,3.0,7.0,85,-99.99,,,-99.99,,2013-04-09 13:33:00,
2013-04-09 09:43:00,68.0,64.0,30.13,ESE,102,3.0,6.0,84,-99.99,,,-99.99,,2013-04-09 13:43:00,
2013-04-09 09:53:00,68.0,64.0,30.13,ESE,102,3.0,6.0,84,-99.99,,,-99.99,,2013-04-09 13:53:00,
2013-04-09 10:03:00,69.0,64.0,30.13,ESE,102,3.0,6.0,83,-99.99,,,-99.99,,2013-04-09 14:03:00,
2013-04-09 10:12:00,69.0,64.0,30.13,ESE,102,3.0,6.0,83,-99.99,,,-99.99,,2013-04-09 14:12:00,
2013-04-09 10:22:00,75.0,66.0,30.13,ESE,121,6.0,12.0,72,-99.99,,,-99.99,,2013-04-09 14:22:00,
2013-04-09 10:33:00,75.0,66.0,30.13,ESE,121,6.0,12.0,72,-99.99,,,-99.99,,2013-04-09 14:33:00,
2013-04-09 10:43:00,77.0,66.0,30.13,SE,124,9.0,17.0,69,-99.99,,,-99.99,,2013-04-09 14:43:00,
2013-04-09 10:52:00,77.0,66.0,30.13,SE,124,9.0,17.0,69,-99.99,,,-99.99,,2013-04-09 14:52:00,
2013-04-09 11:02:00,78.0,66.0,30.14,SE,125,9.0,17.0,68,-99.99,,,-99.99,,2013-04-09 15:02:00,
2013-04-09 11:13:00,78.0,66.0,30.14,SE,125,9.0,17.0,68,-99.99,,,-99.99,,2013-04-09 15:13:00,
2013-04-09 11:23:00,79.0,67.0,30.14,ESE,123,8.0,14.0,64,-99.99,,,-99.99,,2013-04-09 15:23:00,
2013-04-09 11:34:00,79.0,67.0,30.14,ESE,123,8.0,14.0,64,-99.99,,,-99.99,,2013-04-09 15:34:00,
2013-04-09 11:44:00,79.0,66.0,30.14,SE,136,8.0,15.0,63,-99.99,,,-99.99,,2013-04-09 15:44:00,
2013-04-09 11:54:00,79.0,66.0,30.14,SE,136,8.0,15.0,63,-99.99,,,-99.99,,2013-04-09 15:54:00,
2013-04-09 12:03:00,80.0,66.0,30.14,SE,134,7.0,15.0,61,-99.99,,,-99.99,,2013-04-09 16:03:00,
2013-04-09 12:13:00,80.0,66.0,30.14,SE,134,7.0,15.0,61,-99.99,,,-99.99,,2013-04-09 16:13:00,
2013-04-09 12:23:00,83.0,63.0,30.13,SE,143,9.0,17.0,50,-99.99,,,-99.99,,2013-04-09 16:23:00,
2013-04-09 12:33:00,83.0,63.0,30.13,SE,143,9.0,17.0,50,-99.99,,,-99.99,,2013-04-09 16:33:00,
2013-04-09 12:43:00,83.0,63.0,30.13,ESE,109,7.0,15.0,50,-99.99,,,-99.99,,2013-04-09 16:43:00,
2013-04-09 12:54:00,83.0,63.0,30.13,ESE,109,7.0,15.0,50,-99.99,,,-99.99,,2013-04-09 16:54:00,
2013-04-09 13:02:00,82.0,63.0,30.13,SE,133,5.0,11.0,51,-99.99,,,-99.99,,2013-04-09 17:02:00,
2013-04-09 13:13:00,82.0,63.0,30.13,SE,133,5.0,11.0,51,-99.99,,,-99.99,,2013-04-09 17:13:00,
2013-04-09 13:23:00,84.0,62.0,30.12,ESE,120,7.0,14.0,48,-99.99,,,-99.99,,2013-04-09 17:23:00,
2013-04-09 13:32:00,84.0,62.0,30.12,ESE,120,7.0,14.0,48,-99.99,,,-99.99,,2013-04-09 17:32:00,
2013-04-09 13:43:00,83.0,62.0,30.12,East,90,7.0,13.0,48,-99.99,,,-99.99,,2013-04-09 17:43:00,
2013-04-09 13:54:00,83.0,62.0,30.12,East,90,7.0,13.0,48,-99.99,,,-99.99,,2013-04-09 17:54:00,
2013-04-09 14:02:00,84.0,62.0,30.11,ESE,115,5.0,11.0,48,-99.99,,,-99.99,,2013-04-09 18:02:00,
2013-04-09 14:13:00,84.0,62.0,30.11,ESE,115,5.0,11.0,48,-99.99,,,-99.99,,2013-04-09 18:13:00,
2013-04-09 14:23:00,84.0,63.0,30.09,SE,127,7.0,14.0,47,-99.99,,,-99.99,,2013-04-09 18:23:00,
2013-04-09 14:33:00,84.0,63.0,30.09,SE,127,7.0,14.0,47,-99.99,,,-99.99,,2013-04-09 18:33:00,
2013-04-09 14:43:00,83.0,63.0,30.09,ESE,110,7.0,17.0,49,-99.99,,,-99.99,,2013-04-09 18:43:00,
2013-04-09 14:53:00,83.0,63.0,30.09,ESE,110,7.0,17.0,49,-99.99,,,-99.99,,2013-04-09 18:53:00,
2013-04-09 15:03:00,83.0,63.0,30.09,ESE,110,7.0,17.0,49,-99.99,,,-99.99,,2013-04-09 19:03:00,
2013-04-09 15:12:00,83.0,63.0,30.09,ESE,110,7.0,17.0,49,-99.99,,,-99.99,,2013-04-09 19:12:00,
2013-04-09 15:23:00,84.0,62.0,30.09,ESE,103,7.0,15.0,48,-99.99,,,-99.99,,2013-04-09 19:23:00,
2013-04-09 15:32:00,84.0,63.0,30.07,ESE,122,7.0,13.0,48,-99.99,,,-99.99,,2013-04-09 19:32:00,
2013-04-09 15:42:00,84.0,63.0,30.07,ESE,122,7.0,13.0,48,-99.99,,,-99.99,,2013-04-09 19:42:00,
2013-04-09 15:53:00,83.0,63.0,30.07,East,97,7.0,12.0,50,-99.99,,,-99.99,,2013-04-09 19:53:00,
2013-04-09 16:03:00,84.0,63.0,30.07,ESE,110,4.0,11.0,49,-99.99,,,-99.99,,2013-04-09 20:03:00,
2013-04-09 16:12:00,84.0,63.0,30.07,ESE,110,4.0,11.0,49,-99.99,,,-99.99,,2013-04-09 20:12:00,
2013-04-09 16:23:00,84.0,63.0,30.06,ESE,112,9.0,15.0,50,-99.99,,,-99.99,,2013-04-09 20:23:00,
2013-04-09 16:34:00,84.0,63.0,30.06,ESE,112,9.0,15.0,50,-99.99,,,-99.99,,2013-04-09 20:34:00,
2013-04-09 16:44:00,84.0,64.0,30.06,ESE,122,7.0,15.0,50,-99.99,,,-99.99,,2013-04-09 20:44:00,
2013-04-09 16:53:00,84.0,64.0,30.06,ESE,122,7.0,15.0,50,-99.99,,,-99.99,,2013-04-09 20:53:00,
2013-04-09 17:02:00,84.0,64.0,30.06,SE,124,8.0,13.0,50,-99.99,,,-99.99,,2013-04-09 21:02:00,
2013-04-09 17:14:00,84.0,64.0,30.06,SE,124,8.0,13.0,50,-99.99,,,-99.99,,2013-04-09 21:14:00,
2013-04-09 17:23:00,84.0,64.0,30.06,SE,124,8.0,13.0,50,-99.99,,,-99.99,,2013-04-09 21:23:00,
2013-04-09 17:33:00,85.0,64.0,30.06,ESE,120,5.0,11.0,49,-99.99,,,-99.99,,2013-04-09 21:33:00,
2013-04-09 17:42:00,85.0,64.0,30.06,ESE,120,5.0,11.0,49,-99.99,,,-99.99,,2013-04-09 21:42:00,
2013-04-09 17:53:00,81.0,66.0,30.06,South,183,5.0,10.0,58,-99.99,,,-99.99,,2013-04-09 21:53:00,
2013-04-09 18:03:00,81.0,66.0,30.06,South,180,5.0,11.0,60,-99.99,,,-99.99,,2013-04-09 22:03:00,
2013-04-09 18:13:00,81.0,66.0,30.06,South,180,5.0,11.0,60,-99.99,,,-99.99,,2013-04-09 22:13:00,
2013-04-09 18:23:00,80.0,67.0,30.06,SE,126,2.0,3.0,64,-99.99,,,-99.99,,2013-04-09 22:23:00,
2013-04-09 18:33:00,80.0,67.0,30.06,SE,126,2.0,3.0,64,-99.99,,,-99.99,,2013-04-09 22:33:00,
2013-04-09 18:43:00,79.0,67.0,30.06,ENE,64,3.0,10.0,66,-99.99,,,-99.99,,2013-04-09 22:43:00,
2013-04-09 18:54:00,79.0,67.0,30.06,ENE,64,3.0,10.0,66,-99.99,,,-99.99,,2013-04-09 22:54:00,
2013-04-09 19:03:00,79.0,66.0,30.06,East,99,4.0,9.0,63,-99.99,,,-99.99,,2013-04-09 23:03:00,
2013-04-09 19:13:00,79.0,66.0,30.06,East,99,4.0,9.0,63,-99.99,,,-99.99,,2013-04-09 23:13:00,
2013-04-09 19:23:00,78.0,65.0,30.06,East,80,4.0,9.0,63,-99.99,,,-99.99,,2013-04-09 23:23:00,
2013-04-09 19:32:00,78.0,65.0,30.06,East,80,4.0,9.0,63,-99.99,,,-99.99,,2013-04-09 23:32:00,
2013-04-09 19:43:00,78.0,65.0,30.06,East,84,6.0,13.0,63,-99.99,,,-99.99,,2013-04-09 23:43:00,
2013-04-09 19:53:00,78.0,65.0,30.06,East,84,6.0,13.0,63,-99.99,,,-99.99,,2013-04-09 23:53:00,
2013-04-09 20:03:00,78.0,65.0,30.06,East,81,5.0,12.0,64,-99.99,,,-99.99,,2013-04-10 00:03:00,
2013-04-09 20:13:00,78.0,65.0,30.06,East,81,5.0,12.0,64,-99.99,,,-99.99,,2013-04-10 00:13:00,
2013-04-09 20:23:00,77.0,65.0,30.07,East,83,5.0,11.0,66,-99.99,,,-99.99,,2013-04-10 00:23:00,
2013-04-09 20:33:00,77.0,65.0,30.07,East,83,5.0,11.0,66,-99.99,,,-99.99,,2013-04-10 00:33:00,
2013-04-09 20:43:00,76.0,65.0,30.08,ENE,76,5.0,10.0,67,-99.99,,,-99.99,,2013-04-10 00:43:00,
2013-04-09 20:53:00,76.0,65.0,30.08,ENE,76,5.0,10.0,67,-99.99,,,-99.99,,2013-04-10 00:53:00,
2013-04-09 21:02:00,75.0,65.0,30.08,ENE,67,5.0,9.0,69,-99.99,,,-99.99,,2013-04-10 01:02:00,
2013-04-09 21:12:00,75.0,65.0,30.08,ENE,67,5.0,9.0,69,-99.99,,,-99.99,,2013-04-10 01:12:00,
2013-04-09 21:23:00,74.0,65.0,30.08,East,83,5.0,10.0,71,-99.99,,,-99.99,,2013-04-10 01:23:00,
2013-04-09 21:32:00,74.0,65.0,30.08,East,83,5.0,10.0,71,-99.99,,,-99.99,,2013-04-10 01:32:00,
2013-04-09 21:43:00,73.0,64.0,30.09,East,85,5.0,11.0,72,-99.99,,,-99.99,,2013-04-10 01:43:00,
2013-04-09 21:53:00,73.0,64.0,30.09,East,85,5.0,11.0,72,-99.99,,,-99.99,,2013-04-10 01:53:00,
2013-04-09 22:02:00,73.0,64.0,30.09,East,87,4.0,9.0,73,-99.99,,,-99.99,,2013-04-10 02:02:00,
2013-04-09 22:13:00,73.0,64.0,30.09,East,87,4.0,9.0,73,-99.99,,,-99.99,,2013-04-10 02:13:00,
2013-04-09 22:23:00,72.0,64.0,30.10,East,80,4.0,8.0,74,-99.99,,,-99.99,,2013-04-10 02:23:00,
2013-04-09 22:33:00,72.0,64.0,30.10,East,80,4.0,8.0,74,-99.99,,,-99.99,,2013-04-10 02:33:00,
2013-04-09 22:43:00,72.0,64.0,30.10,East,79,5.0,9.0,75,-99.99,,,-99.99,,2013-04-10 02:43:00,
2013-04-09 22:53:00,72.0,64.0,30.10,East,79,5.0,9.0,75,-99.99,,,-99.99,,2013-04-10 02:53:00,
2013-04-09 23:03:00,71.0,64.0,30.11,East,87,4.0,9.0,76,-99.99,,,-99.99,,2013-04-10 03:03:00,
2013-04-09 23:12:00,71.0,64.0,30.11,East,87,4.0,9.0,76,-99.99,,,-99.99,,2013-04-10 03:12:00,
2013-04-09 23:22:00,70.0,63.0,30.11,ENE,76,4.0,9.0,77,-99.99,,,-99.99,,2013-04-10 03:22:00,
2013-04-09 23:33:00,70.0,63.0,30.11,ENE,76,4.0,9.0,77,-99.99,,,-99.99,,2013-04-10 03:33:00,
2013-04-09 23:43:00,70.0,63.0,30.11,ENE,75,4.0,8.0,78,-99.99,,,-99.99,,2013-04-10 03:43:00,
2013-04-09 23:53:00,70.0,63.0,30.11,ENE,75,4.0,8.0,78,-99.99,,,-99.99,,2013-04-10 03:53:00,